Location: Tel Aviv
(32.0670°N, 34.7670°E)
Time: 21:05:25
(UTC+02:00)

Vanguard 1 Rocket - Pass Details

Date: 19 July 2025
Orbit: 651 x 4216 km, 34.3° (Epoch: 14 January)

Event Time Altitude Azimuth Distance (km) Brightness Sun altitude
Rises 23:34:40 0° 275° (W) 6,341 12.0 -34.5°
Reaches altitude 10° 23:39:41 10° 277° (W) 4,738 11.3 -34.8°
Enters shadow 23:51:05 78° 348° (NNW) 1,315 8.0 -35.6°
